DJ3OW-13 Weather Reports


Display with metric or nautical units.
time (UTC)temp
F
wind
direction
speed
MPH
gust
MPH
rain 1hr
in
rain 24hr
in
rain mn
in
humidity
%
barometer
mb
20260508114040 52 113 0.0 2.0 0.00 0.01 0.00 80 1021.9
20260508113038 53 113 0.0 2.0 0.00 0.01 0.00 81 1021.9
20260508112036 52 0.0 2.0 0.00 0.01 0.00 82 1021.9
20260508111034 52 90 0.0 2.0 0.00 0.01 0.00 82 1021.9
20260508110052 52 0.0 2.0 0.00 0.01 0.00 84 1021.8
20260508105030 51 113 0.0 2.0 0.00 0.01 0.00 83 1021.8
20260508104028 51 113 1.0 4.0 0.00 0.01 0.00 83 1021.8
20260508103026 51 0.0 2.0 0.00 0.01 0.00 83 1021.7
20260508102024 52 248 1.0 2.0 0.00 0.01 0.00 82 1021.7
20260508101022 52 113 0.0 2.0 0.00 0.01 0.00 82 1021.8
20260508100020 51 113 0.0 2.0 0.00 0.01 0.00 81 1021.7
20260508095018 52 158 0.0 2.0 0.00 0.02 0.00 84 1021.8
20260508094016 52 0.0 2.0 0.00 0.02 0.00 84 1021.9
20260508093114 51 113 1.0 2.0 0.00 0.02 0.00 83 1021.8
20260508092112 51 129 0.0 2.0 0.00 0.02 0.00 85 1021.8
20260508091130 51 113 0.0 2.0 0.00 0.02 0.00 86 1021.8
20260508090108 51 126 1.0 2.0 0.00 0.02 0.00 86 1021.7
20260508085106 51 68 0.0 2.0 0.00 0.02 0.00 88 1021.7
20260508084104 51 66 0.0 2.0 0.00 0.02 0.00 87 1021.7
20260508083102 51 113 0.0 2.0 0.00 0.02 0.00 86 1021.7
20260508082100 51 139 0.0 2.0 0.00 0.02 0.00 86 1021.7
20260508081058 50 113 0.0 2.0 0.00 0.02 0.00 86 1021.6
20260508080056 50 248 0.0 2.0 0.00 0.02 0.00 87 1021.6
20260508075054 51 124 0.0 2.0 0.00 0.02 0.00 89 1021.5
20260508074052 50 113 0.0 2.0 0.00 0.02 0.00 91 1021.6
20260508073050 49 259 0.0 2.0 0.00 0.02 0.00 91 1021.4
20260508072048 49 0.0 0.0 0.00 0.02 0.00 92 1021.3
20260508071046 49 0.0 0.0 0.00 0.02 0.00 93 1021.3
20260508070044 48 0.0 0.0 0.00 0.02 0.00 95 1021.2
20260508065042 47 0.0 0.0 0.00 0.02 0.00 97 1021.0
20260508064040 48 0.0 0.0 0.00 0.02 0.00 98 1021.0
20260508063038 47 0.0 0.0 0.00 0.02 0.00 98 1020.9
20260508062036 47 0.0 0.0 0.00 0.02 0.00 99 1020.8
20260508061034 47 0.0 0.0 0.00 0.02 0.00 99 1020.7
20260508060052 46 0.0 0.0 0.00 0.02 0.00 99 1020.6
20260508055120 46 0.0 0.0 0.00 0.02 0.00 99 1020.5
20260508054058 46 0.0 0.0 0.00 0.02 0.00 99 1020.5
20260508053056 46 0.0 0.0 0.00 0.02 0.00 99 1020.5
20260508052053 47 0.0 2.0 0.00 0.02 0.00 99 1020.5
20260508051052 46 0.0 0.0 0.00 0.02 0.00 99 1020.4
20260508050049 45 0.0 0.0 0.00 0.02 0.00 99 1020.3
20260508045108 45 0.0 0.0 0.00 0.02 0.00 99 1020.2
20260508044045 45 0.0 0.0 0.00 0.02 0.00 99 1020.1
20260508043043 45 0.0 0.0 0.00 0.02 0.00 99 1020.0
20260508042042 45 0.0 2.0 0.00 0.04 0.00 99 1020.0
20260508041040 45 0.0 0.0 0.00 0.04 0.00 99 1019.9
20260508040058 45 0.0 0.0 0.00 0.04 0.00 99 1020.0
20260508035036 45 0.0 0.0 0.00 0.04 0.00 99 1019.8
20260508034033 45 0.0 0.0 0.00 0.04 0.00 99 1019.9
20260508033031 45 0.0 0.0 0.00 0.04 0.00 99 1019.8
20260508032029 45 0.0 0.0 0.00 0.04 0.00 99 1019.8
20260508031027 45 0.0 0.0 0.00 0.04 0.00 99 1019.9
20260508030105 45 0.0 0.0 0.00 0.04 0.00 99 1019.9
20260508025023 45 0.0 0.0 0.00 0.04 0.00 99 1019.9
20260508024021 45 0.0 0.0 0.00 0.04 0.00 99 1020.2
20260508023019 45 0.0 0.0 0.00 0.04 0.00 99 1020.1
20260508022017 46 0.0 0.0 0.00 0.04 0.00 99 1020.1
20260508021015 46 0.0 0.0 0.00 0.04 0.00 99 1020.1
20260508020113 46 0.0 0.0 0.00 0.04 0.00 99 1020.2
20260508015152 46 0.0 0.0 0.00 0.04 0.00 99 1020.2
20260508014109 46 0.0 0.0 0.00 0.05 0.00 99 1020.2
20260508013107 46 0.0 0.0 0.00 0.05 0.00 99 1020.1
20260508012105 46 0.0 2.0 0.00 0.05 0.00 99 1020.1
20260508011103 46 0.0 2.0 0.00 0.05 0.00 99 1020.0
20260508010101 46 0.0 0.0 0.00 0.05 0.00 99 1020.1
20260508005059 46 0.0 0.0 0.00 0.05 0.00 99 1020.2
20260508004057 46 0.0 2.0 0.00 0.05 0.00 99 1020.0
20260508003055 46 0.0 0.0 0.00 0.05 0.00 99 1020.1
20260508002053 46 0.0 0.0 0.00 0.05 0.00 99 1020.0
20260508001051 46 0.0 0.0 0.00 0.05 0.00 99 1020.2
20260508000049 46 0.0 0.0 0.00 0.05 0.00 99 1020.2
20260507235047 46 0.0 0.0 0.00 0.06 0.00 99 1020.3
20260507234045 46 0.0 0.0 0.00 0.06 0.00 99 1020.2
20260507233043 46 0.0 0.0 0.00 0.07 0.00 99 1020.2
20260507232041 46 0.0 0.0 0.00 0.07 0.00 99 1020.1
20260507231039 46 0.0 0.0 0.00 0.07 0.00 99 1020.1
20260507230037 46 0.0 2.0 0.00 0.07 0.00 99 1020.0
20260507225055 46 248 0.0 2.0 0.00 0.07 0.00 99 1020.0
20260507224033 46 0.0 0.0 0.00 0.08 0.00 99 1020.0
20260507223031 46 0.0 0.0 0.00 0.08 0.00 99 1020.0
20260507222049 46 0.0 0.0 0.00 0.08 0.00 99 1020.1
20260507221027 46 0.0 0.0 0.00 0.09 0.00 99 1020.0
20260507220025 46 0.0 0.0 0.00 0.11 0.00 99 1020.0
20260507215023 46 0.0 0.0 0.00 0.11 0.11 99 1019.9
20260507214021 46 0.0 0.0 0.00 0.11 0.11 99 1019.9
20260507213039 46 0.0 0.0 0.00 0.11 0.11 99 1019.9
20260507212016 46 0.0 0.0 0.00 0.11 0.11 99 1019.9
20260507211015 46 0.0 0.0 0.00 0.11 0.11 98 1019.9
20260507210113 46 0.0 0.0 0.00 0.12 0.11 98 1019.7
20260507205111 46 0.0 0.0 0.00 0.12 0.11 98 1019.8
20260507204108 46 0.0 0.0 0.00 0.12 0.11 98 1019.8
20260507203106 46 0.0 0.0 0.00 0.12 0.11 98 1019.8
20260507202104 46 0.0 0.0 0.00 0.12 0.11 98 1019.7
20260507201102 46 0.0 0.0 0.00 0.13 0.11 98 1019.6
20260507200100 46 0.0 0.0 0.00 0.13 0.11 98 1019.5
20260507195059 46 0.0 0.0 0.00 0.13 0.11 98 1019.5
20260507194057 46 0.0 0.0 0.00 0.13 0.11 98 1019.5
20260507193055 46 0.0 2.0 0.00 0.13 0.11 98 1019.4
20260507192052 46 248 0.0 2.0 0.00 0.14 0.11 98 1019.3
20260507191050 46 242 1.0 2.0 0.00 0.14 0.11 98 1019.3
20260507190048 46 248 0.0 2.0 0.00 0.14 0.11 98 1019.3
20260507185106 46 248 1.0 2.0 0.00 0.14 0.11 98 1019.1
20260507184104 46 0.0 0.0 0.00 0.14 0.11 98 1019.2
20260507183102 46 0.0 0.0 0.00 0.14 0.11 98 1019.1
20260507182040 46 0.0 0.0 0.00 0.14 0.11 98 1019.0
20260507181038 46 0.0 0.0 0.00 0.14 0.11 98 1018.9
20260507180036 46 0.0 0.0 0.00 0.14 0.11 97 1018.9
20260507175034 46 0.0 0.0 0.00 0.14 0.11 97 1018.8
20260507174052 47 0.0 0.0 0.00 0.14 0.11 97 1018.8
20260507173030 47 0.0 0.0 0.00 0.14 0.11 97 1018.7
20260507172028 47 0.0 0.0 0.00 0.14 0.11 97 1018.6
20260507171026 47 0.0 0.0 0.00 0.14 0.11 97 1018.5
20260507170024 47 0.0 0.0 0.00 0.14 0.11 97 1018.5
20260507165022 47 0.0 0.0 0.00 0.14 0.11 97 1018.5
20260507164040 47 113 0.0 2.0 0.00 0.14 0.11 97 1018.5
20260507163018 47 203 0.0 2.0 0.00 0.14 0.11 97 1018.4
20260507162016 47 0.0 0.0 0.00 0.14 0.11 97 1018.3
20260507161114 47 0.0 0.0 0.01 0.14 0.11 97 1018.3
20260507160112 47 0.0 0.0 0.01 0.14 0.11 97 1018.3
20260507155110 47 225 0.0 2.0 0.01 0.14 0.11 96 1018.3
20260507154108 47 0.0 0.0 0.01 0.14 0.11 96 1018.2
20260507153106 47 0.0 2.0 0.01 0.14 0.11 96 1018.2
20260507152104 47 0.0 0.0 0.01 0.14 0.11 96 1018.1
20260507151102 47 0.0 0.0 0.00 0.13 0.09 96 1018.0
20260507150100 47 90 0.0 2.0 0.00 0.13 0.09 96 1017.9
20260507145058 47 0.0 0.0 0.00 0.13 0.09 96 1017.9
20260507144056 47 0.0 0.0 0.00 0.13 0.09 96 1017.9
20260507143054 47 0.0 2.0 0.00 0.13 0.09 96 1017.9
20260507142132 47 0.0 0.0 0.00 0.13 0.09 96 1017.8
20260507141050 47 0.0 0.0 0.00 0.13 0.09 96 1017.8
20260507140048 47 0.0 2.0 0.00 0.13 0.09 96 1017.8
20260507135046 47 0.0 0.0 0.00 0.13 0.09 96 1017.7
20260507134104 47 0.0 0.0 0.00 0.14 0.09 96 1017.6
20260507133102 47 0.0 0.0 0.00 0.14 0.09 97 1017.6
20260507132040 46 0.0 2.0 0.00 0.14 0.09 97 1017.5
20260507131038 46 90 0.0 2.0 0.00 0.14 0.09 97 1017.4
20260507130036 46 0.0 2.0 0.00 0.15 0.09 97 1017.4
20260507125034 46 270 0.0 2.0 0.00 0.17 0.09 97 1017.2
20260507124031 46 270 0.0 2.0 0.00 0.18 0.09 97 1017.1
20260507123030 46 0.0 2.0 0.00 0.19 0.09 97 1017.1
20260507122028 46 225 0.0 2.0 0.00 0.19 0.09 97 1017.0
20260507121045 47 0.0 2.0 0.00 0.19 0.09 97 1017.0
20260507120023 47 113 0.0 2.0 0.00 0.19 0.09 97 1016.8
20260507115022 46 0.0 2.0 0.00 0.19 0.09 97 1016.8